Location: Quebec
(46.8000°N, 71.2500°W)
Time: 12:17:28
(UTC-05:00)

Vanguard 3 - All Passes

Search period start: 14 December 2017 00:00
Search period end: 24 December 2017 00:00
Orbit: 509 x 3263 km, 33.3° (Epoch: 13 December)

Date Brightness Start Highest point End Pass type
(mag) Time Alt. Az. Time Alt. Az. Time Alt. Az.
14 Dec - 12:42:40 10° S 12:43:39 11° S 12:44:36 10° SSE daylight
14 Dec - 14:53:26 10° SSW 14:54:16 11° S 14:55:07 10° S daylight
15 Dec - 13:39:50 10° SSW 13:41:12 12° S 13:42:32 10° SSE daylight
16 Dec - 12:26:16 10° SSW 12:28:08 12° S 12:29:51 10° SSE daylight
17 Dec - 11:12:37 10° SSW 11:15:00 13° S 11:17:02 10° SSE daylight
17 Dec - 13:24:14 10° SSW 13:25:39 12° S 13:27:02 10° SSE daylight
18 Dec - 09:59:03 10° SSW 10:01:41 13° S 10:03:55 10° SE daylight
18 Dec - 12:10:01 10° SW 12:12:37 14° S 12:14:52 10° SSE daylight
19 Dec - 08:46:08 10° S 08:48:09 11° SSE 08:49:57 10° SSE daylight
19 Dec - 10:55:48 10° SW 10:59:28 16° S 11:02:22 10° SE daylight
19 Dec - 13:08:30 10° SW 13:10:07 12° SSW 13:11:37 10° S daylight
20 Dec - 09:41:31 10° SSW 09:46:07 17° S 09:49:37 10° SE daylight
20 Dec - 11:53:46 10° SW 11:57:05 16° S 11:59:48 10° SSE daylight
21 Dec - 08:27:25 10° SSW 08:32:29 16° SSE 08:36:24 10° SE daylight
21 Dec - 10:39:05 10° SW 10:43:55 20° S 10:47:30 10° SE daylight
21 Dec - 12:52:41 10° SW 12:54:32 12° SSW 12:56:13 10° S daylight
22 Dec - 07:14:06 10° S 07:18:34 13° SSE 07:22:16 10° SE daylight
22 Dec - 09:24:16 10° SW 09:30:30 21° S 09:34:53 10° SE daylight
22 Dec - 11:37:28 10° SW 11:41:32 18° SSW 11:44:41 10° SSE daylight
23 Dec - 08:09:31 10° SSW 08:16:46 20° SSE 08:21:54 10° ESE daylight
23 Dec - 10:22:21 10° SW 10:28:20 23° S 10:32:29 10° SE daylight
23 Dec - 12:36:44 10° SW 12:38:54 13° SSW 12:40:49 10° S daylight
